QPF
0.00 0.00 0.00 0.00 0.00 0.00 0.00 0.00 0.00 0.00 0.00 0.00 0.00 0.00 0.00 0.00 0.00 0.00 0.00 0.00 0.00 0.00 0.00 0.00 0.00 0.00 0.00 0.00 0.00 0.00 0.00 0.00 0.00 0.00 0.00 0.00 0.00 0.00 0.00 0.00 0.00 0.00 0.01 0.01
0.00 0.00 0.00 0.00 0.00 0.00 0.00 0.00 0.00 0.00 0.00 0.00 0.00 0.00 0.00 0.00 0.00 0.00 0.00 0.00 0.00 0.00 0.00 0.00 0.00 0.00 0.00 0.00 0.00 0.00 0.00 0.00 0.00 0.00 0.00 0.00 0.00 0.00 0.00 0.00 0.00 0.00 0.00 0.00
0.00 0.00 0.00 0.00 0.00 0.00 0.00 0.00 0.00 0.00 0.00 0.00 0.00 0.00 0.00 0.00 0.00 0.00 0.00 0.00 0.00 0.00 0.00 0.00 0.00 0.00 0.00 0.00 0.00 0.00 0.00 0.00 0.00 0.00 0.00 0.00 0.00 0.00 0.00 0.00 0.00 0.00 0.00 0.00
0.00 0.00 0.00 0.00 0.00 0.00 0.00 0.00 0.00 0.00 0.00 0.00 0.00 0.00 0.00 0.00 0.00 0.00 0.00 0.00 0.00 0.00 0.00 0.00 0.00 0.00 0.00 0.00 0.00 0.00 0.00 0.00 0.00 0.00 0.00 0.00 0.00 0.00 0.00 0.00 0.00 0.00 0.00 0.00
0.00 0.00 0.00 0.00 0.00 0.00 0.00 0.00 0.00 0.00 0.00 0.00 0.00 0.00 0.00 0.00 0.00 0.00 0.00 0.00 0.00 0.00 0.00 0.00 0.00 0.00 0.00 0.00 0.00 0.00 0.00 0.00 0.00 0.00 0.00 0.00 0.00 0.00 0.00 0.00 0.00 0.00 0.00 0.00
0.00 0.00 0.00 0.00 0.00 0.00 0.00 0.00 0.00 0.00 0.00 0.00 0.00 0.00 0.00 0.00 0.00 0.00 0.00 0.00 0.00 0.00 0.00 0.00 0.00 0.00 0.00 0.00 0.00 0.00 0.00 0.00 0.00 0.00 0.00 0.00 0.00 0.00 0.00 0.00 0.00 0.00 0.00 0.00
0.00 0.00 0.00 0.00 0.00 0.00 0.00 0.00 0.00 0.00 0.00 0.00 0.00 0.00 0.00 0.00 0.00 0.00 0.00 0.00 0.00 0.00 0.00 0.00 0.00 0.00 0.00 0.00 0.00 0.00 0.00 0.00 0.00 0.00 0.00 0.00 0.00 0.00 0.00 0.00 0.00 0.00 0.00 0.00
0.00 0.00 0.00 0.00 0.00 0.00 0.00 0.00 0.00 0.00 0.00 0.00 0.00 0.00 0.00 0.00 0.00 0.00 0.00 0.00 0.00 0.00 0.00 0.00 0.00 0.00 0.00 0.00 0.00 0.00 0.00 0.00 0.00 0.00 0.00 0.00 0.00 0.00 0.00 0.00 0.00 0.00 0.00 0.00
0.00 0.00 0.00 0.00 0.00 0.00 0.00 0.00 0.00 0.00 0.00 0.00 0.00 0.00 0.00 0.00 0.00 0.00 0.00 0.00 0.00 0.00 0.00 0.00 0.00 0.00 0.00 0.00 0.00 0.00 0.00 0.00 0.00 0.00 0.00 0.00 0.00 0.00 0.00 0.00 0.00 0.00 0.00 0.00
0.00 0.00 0.00 0.00 0.00 0.00 0.00 0.00 0.00 0.00 0.00 0.00 0.00 0.00 0.00 0.00 0.00 0.00 0.00 0.00 0.00 0.00 0.00 0.00 0.00 0.00 0.00 0.00 0.00 0.00 0.00 0.00 0.00 0.00 0.00 0.00 0.00 0.00 0.01 0.01 0.01 0.03 0.03 0.01
0.00 0.00 0.00 0.00 0.00 0.00 0.00 0.00 0.00 0.00 0.00 0.00 0.00 0.00 0.00 0.00 0.00 0.00 0.00 0.00 0.00 0.00 0.00 0.00 0.00 0.00 0.00 0.00 0.00 0.00 0.00 0.00 0.00 0.00 0.00 0.00 0.00 0.00 0.01 0.03 0.05 0.08 0.04 0.03
0.00 0.00 0.00 0.00 0.00 0.00 0.00 0.00 0.00 0.00 0.00 0.00 0.00 0.00 0.00 0.00 0.00 0.00 0.00 0.00 0.00 0.00 0.00 0.00 0.00 0.00 0.00 0.00 0.00 0.00 0.00 0.00 0.00 0.00 0.01 0.00 0.01 0.00 0.01 0.02 0.04 0.04 0.02 0.03
0.00 0.00 0.00 0.00 0.00 0.00 0.00 0.00 0.00 0.00 0.00 0.00 0.00 0.00 0.00 0.00 0.00 0.00 0.00 0.00 0.00 0.00 0.00 0.00 0.00 0.00 0.00 0.00 0.00 0.00 0.01 0.01 0.01 0.01 0.01 0.01 0.01 0.01 0.01 0.01 0.01 0.01 0.01 0.01
0.00 0.00 0.00 0.00 0.00 0.00 0.00 0.00 0.00 0.00 0.00 0.00 0.00 0.00 0.00 0.00 0.00 0.00 0.00 0.00 0.00 0.00 0.00 0.00 0.00 0.00 0.00 0.00 0.00 0.00 0.00 0.01 0.01 0.02 0.02 0.02 0.01 0.01 0.02 0.01 0.01 0.00 0.00 0.00
0.00 0.00 0.00 0.00 0.00 0.00 0.00 0.00 0.00 0.00 0.00 0.00 0.00 0.00 0.00 0.00 0.00 0.00 0.00 0.00 0.00 0.00 0.00 0.00 0.00 0.00 0.00 0.00 0.00 0.00 0.00 0.01 0.02 0.01 0.01 0.01 0.01 0.01 0.01 0.01 0.01 0.01 0.00 0.00
0.00 0.00 0.00 0.00 0.00 0.00 0.00 0.00 0.00 0.00 0.00 0.00 0.00 0.00 0.00 0.00 0.00 0.00 0.00 0.00 0.00 0.00 0.00 0.00 0.00 0.00 0.00 0.00 0.00 0.00 0.00 0.00 0.01 0.00 0.00 0.01 0.01 0.01 0.01 0.01 0.01 0.01 0.00 0.00
0.00 0.00 0.00 0.00 0.00 0.00 0.00 0.00 0.00 0.00 0.00 0.00 0.00 0.00 0.00 0.00 0.00 0.00 0.00 0.00 0.00 0.00 0.00 0.00 0.00 0.00 0.00 0.00 0.01 0.00 0.00 0.00 0.00 0.00 0.00 0.01 0.01 0.01 0.02 0.02 0.01 0.01 0.01 0.01
0.00 0.00 0.00 0.00 0.00 0.00 0.00 0.00 0.00 0.00 0.00 0.00 0.00 0.00 0.00 0.00 0.00 0.00 0.00 0.00 0.00 0.00 0.00 0.00 0.00 0.00 0.00 0.00 0.01 0.00 0.00 0.00 0.00 0.00 0.00 0.01 0.01 0.01 0.01 0.01 0.01 0.01 0.01 0.00
0.00 0.00 0.00 0.00 0.00 0.00 0.00 0.00 0.00 0.00 0.00 0.00 0.00 0.00 0.00 0.00 0.00 0.00 0.00 0.00 0.00 0.00 0.00 0.00 0.00 0.00 0.00 0.00 0.00 0.00 0.00 0.00 0.00 0.00 0.00 0.00 0.00 0.00 0.00 0.01 0.01 0.01 0.00 0.00
0.00 0.00 0.00 0.00 0.00 0.00 0.00 0.00 0.00 0.00 0.00 0.00 0.00 0.00 0.00 0.00 0.00 0.00 0.00 0.00 0.00 0.00 0.00 0.00 0.00 0.00 0.01 0.00 0.00 0.00 0.00 0.00 0.00 0.00 0.00 0.00 0.00 0.00 0.00 0.00 0.00 0.00 0.00 0.00
0.00 0.00 0.00 0.00 0.00 0.00 0.00 0.00 0.00 0.00 0.00 0.00 0.00 0.00 0.00 0.00 0.00 0.00 0.00 0.00 0.00 0.00 0.00 0.00 0.00 0.01 0.01 0.00 0.00 0.00 0.00 0.00 0.00 0.01 0.00 0.00 0.00 0.00 0.00 0.00 0.00 0.00 0.00 0.00
0.00 0.00 0.00 0.00 0.00 0.00 0.00 0.00 0.00 0.00 0.00 0.00 0.00 0.00 0.00 0.00 0.00 0.00 0.00 0.00 0.00 0.00 0.00 0.00 0.00 0.01 0.00 0.00 0.00 0.00 0.00 0.00 0.01 0.01 0.01 0.00 0.00 0.00 0.00 0.00 0.00 0.00 0.00 0.00
0.00 0.00 0.00 0.00 0.00 0.00 0.00 0.00 0.00 0.00 0.00 0.00 0.00 0.00 0.00 0.00 0.00 0.00 0.00 0.00 0.00 0.00 0.00 0.00 0.00 0.01 0.00 0.00 0.00 0.00 0.00 0.00 0.01 0.01 0.01 0.01 0.01 0.01 0.01 0.01 0.01 0.01 0.01 0.01
0.00 0.00 0.00 0.00 0.00 0.00 0.00 0.00 0.00 0.00 0.00 0.00 0.00 0.00 0.00 0.00 0.00 0.00 0.00 0.00 0.00 0.00 0.00 0.00 0.00 0.00 0.00 0.00 0.00 0.00 0.00 0.00 0.01 0.01 0.01 0.01 0.01 0.01 0.01 0.02 0.02 0.02 0.02 0.02
0.00 0.00 0.00 0.00 0.00 0.00 0.00 0.00 0.00 0.00 0.00 0.00 0.00 0.00 0.00 0.00 0.00 0.00 0.00 0.00 0.00 0.00 0.00 0.00 0.00 0.00 0.00 0.00 0.00 0.00 0.00 0.00 0.01 0.01 0.01 0.02 0.02 0.02 0.02 0.03 0.03 0.03 0.03 0.03
0.00 0.00 0.00 0.00 0.00 0.00 0.00 0.00 0.00 0.00 0.00 0.00 0.00 0.00 0.00 0.00 0.00 0.00 0.00 0.00 0.00 0.00 0.00 0.00 0.00 0.00 0.00 0.00 0.00 0.00 0.00 0.00 0.00 0.01 0.01 0.01 0.02 0.03 0.03 0.04 0.04 0.04 0.04 0.05
0.00 0.00 0.00 0.00 0.00 0.00 0.00 0.00 0.00 0.00 0.00 0.00 0.00 0.00 0.00 0.00 0.00 0.00 0.00 0.00 0.00 0.00 0.00 0.00 0.00 0.00 0.00 0.00 0.00 0.00 0.00 0.00 0.00 0.01 0.01 0.01 0.02 0.03 0.05 0.05 0.05 0.05 0.06 0.06
MSLP
1029.87 1029.72 1029.62 1029.56 1029.56 1029.62 1029.75 1029.94 1030.20 1030.53 1030.94 1031.43 1032.00 1032.64 1033.33 1034.05 1034.75 1035.40 1035.96 1036.41 1036.72 1036.89 1036.92 1036.81 1036.59 1036.28 1035.89 1035.43 1034.91 1034.34 1033.71 1033.02 1032.28 1031.48 1030.63 1029.73 1028.80 1027.85 1026.87 1025.86 1024.84 1023.79 1022.71 1021.62
1030.10 1029.93 1029.80 1029.72 1029.72 1029.79 1029.92 1030.12 1030.40 1030.76 1031.19 1031.71 1032.32 1032.99 1033.72 1034.47 1035.21 1035.89 1036.48 1036.94 1037.25 1037.39 1037.38 1037.22 1036.93 1036.53 1036.06 1035.52 1034.93 1034.30 1033.64 1032.94 1032.20 1031.42 1030.60 1029.75 1028.86 1027.94 1026.98 1025.99 1024.97 1023.92 1022.84 1021.74
1030.24 1030.03 1029.87 1029.77 1029.75 1029.81 1029.96 1030.19 1030.50 1030.90 1031.39 1031.98 1032.65 1033.39 1034.17 1034.97 1035.75 1036.45 1037.05 1037.50 1037.77 1037.87 1037.79 1037.55 1037.17 1036.68 1036.11 1035.49 1034.83 1034.15 1033.46 1032.75 1032.03 1031.29 1030.52 1029.71 1028.87 1028.00 1027.08 1026.11 1025.10 1024.04 1022.95 1021.83
1030.22 1029.99 1029.81 1029.70 1029.68 1029.75 1029.92 1030.19 1030.57 1031.04 1031.62 1032.29 1033.04 1033.85 1034.70 1035.54 1036.33 1037.03 1037.60 1038.01 1038.23 1038.25 1038.08 1037.75 1037.27 1036.69 1036.03 1035.34 1034.62 1033.90 1033.19 1032.48 1031.78 1031.07 1030.35 1029.60 1028.82 1027.99 1027.11 1026.18 1025.18 1024.13 1023.03 1021.90
1030.02 1029.80 1029.63 1029.54 1029.54 1029.65 1029.88 1030.23 1030.70 1031.27 1031.95 1032.71 1033.55 1034.43 1035.31 1036.16 1036.94 1037.60 1038.11 1038.44 1038.57 1038.49 1038.23 1037.80 1037.23 1036.56 1035.83 1035.07 1034.31 1033.56 1032.84 1032.14 1031.46 1030.79 1030.11 1029.41 1028.68 1027.90 1027.07 1026.17 1025.20 1024.17 1023.09 1021.97
1029.66 1029.48 1029.36 1029.32 1029.40 1029.59 1029.92 1030.38 1030.96 1031.65 1032.44 1033.30 1034.20 1035.11 1036.00 1036.83 1037.55 1038.13 1038.54 1038.76 1038.78 1038.59 1038.23 1037.71 1037.07 1036.34 1035.56 1034.76 1033.97 1033.21 1032.48 1031.78 1031.11 1030.45 1029.80 1029.14 1028.45 1027.72 1026.93 1026.08 1025.16 1024.18 1023.14 1022.06
1029.19 1029.09 1029.05 1029.12 1029.31 1029.63 1030.09 1030.69 1031.40 1032.22 1033.11 1034.04 1034.99 1035.91 1036.76 1037.52 1038.14 1038.60 1038.88 1038.97 1038.86 1038.57 1038.11 1037.52 1036.83 1036.07 1035.27 1034.46 1033.66 1032.89 1032.15 1031.44 1030.77 1030.11 1029.47 1028.82 1028.15 1027.45 1026.71 1025.92 1025.07 1024.17 1023.21 1022.22
1028.69 1028.69 1028.78 1028.99 1029.32 1029.81 1030.43 1031.18 1032.03 1032.96 1033.94 1034.93 1035.88 1036.76 1037.55 1038.19 1038.68 1039.00 1039.13 1039.07 1038.84 1038.45 1037.93 1037.30 1036.58 1035.82 1035.02 1034.22 1033.43 1032.66 1031.91 1031.18 1030.48 1029.80 1029.13 1028.47 1027.81 1027.14 1026.44 1025.72 1024.96 1024.16 1023.31 1022.44
1028.26 1028.38 1028.61 1028.98 1029.48 1030.14 1030.92 1031.83 1032.81 1033.84 1034.88 1035.89 1036.82 1037.64 1038.31 1038.83 1039.17 1039.32 1039.30 1039.11 1038.77 1038.30 1037.73 1037.08 1036.38 1035.63 1034.86 1034.09 1033.31 1032.53 1031.77 1031.01 1030.27 1029.55 1028.84 1028.15 1027.48 1026.82 1026.17 1025.52 1024.85 1024.17 1023.47 1022.74
1027.95 1028.20 1028.59 1029.11 1029.79 1030.62 1031.56 1032.60 1033.69 1034.79 1035.87 1036.86 1037.74 1038.46 1039.02 1039.39 1039.57 1039.58 1039.42 1039.11 1038.68 1038.16 1037.57 1036.92 1036.24 1035.53 1034.81 1034.06 1033.30 1032.53 1031.74 1030.95 1030.15 1029.38 1028.62 1027.89 1027.20 1026.55 1025.94 1025.35 1024.79 1024.23 1023.67 1023.10
1027.81 1028.18 1028.71 1029.40 1030.23 1031.21 1032.28 1033.42 1034.59 1035.73 1036.80 1037.76 1038.56 1039.19 1039.62 1039.85 1039.90 1039.77 1039.50 1039.11 1038.62 1038.07 1037.47 1036.85 1036.20 1035.53 1034.84 1034.13 1033.38 1032.60 1031.80 1030.97 1030.13 1029.29 1028.49 1027.72 1027.01 1026.37 1025.79 1025.26 1024.79 1024.35 1023.92 1023.49
1027.80 1028.30 1028.96 1029.79 1030.76 1031.85 1033.02 1034.24 1035.44 1036.59 1037.63 1038.53 1039.25 1039.77 1040.09 1040.21 1040.15 1039.93 1039.57 1039.12 1038.60 1038.04 1037.45 1036.85 1036.23 1035.60 1034.94 1034.25 1033.51 1032.73 1031.90 1031.04 1030.17 1029.29 1028.45 1027.66 1026.94 1026.30 1025.75 1025.27 1024.87 1024.51 1024.19 1023.88
1027.88 1028.49 1029.28 1030.23 1031.31 1032.49 1033.72 1034.97 1036.17 1037.30 1038.29 1039.12 1039.76 1040.20 1040.43 1040.47 1040.33 1040.05 1039.65 1039.17 1038.63 1038.07 1037.49 1036.91 1036.31 1035.70 1035.06 1034.38 1033.64 1032.86 1032.02 1031.14 1030.25 1029.36 1028.51 1027.71 1026.99 1026.37 1025.84 1025.40 1025.04 1024.75 1024.49 1024.24
1027.97 1028.70 1029.60 1030.65 1031.82 1033.06 1034.32 1035.57 1036.75 1037.83 1038.77 1039.53 1040.09 1040.46 1040.63 1040.62 1040.45 1040.14 1039.73 1039.24 1038.71 1038.15 1037.58 1037.00 1036.41 1035.80 1035.16 1034.47 1033.74 1032.95 1032.11 1031.24 1030.36 1029.49 1028.65 1027.87 1027.17 1026.57 1026.06 1025.64 1025.31 1025.04 1024.80 1024.59
1028.03 1028.88 1029.89 1031.03 1032.26 1033.53 1034.80 1036.03 1037.17 1038.19 1039.06 1039.75 1040.26 1040.58 1040.72 1040.69 1040.51 1040.21 1039.81 1039.34 1038.81 1038.26 1037.69 1037.10 1036.50 1035.87 1035.21 1034.52 1033.78 1033.00 1032.18 1031.34 1030.49 1029.65 1028.86 1028.12 1027.46 1026.89 1026.40 1025.99 1025.66 1025.38 1025.14 1024.91
1028.03 1029.00 1030.11 1031.33 1032.61 1033.90 1035.16 1036.35 1037.43 1038.39 1039.19 1039.83 1040.29 1040.58 1040.71 1040.68 1040.52 1040.24 1039.87 1039.42 1038.91 1038.36 1037.79 1037.18 1036.55 1035.90 1035.22 1034.51 1033.77 1033.00 1032.22 1031.42 1030.63 1029.86 1029.13 1028.45 1027.84 1027.30 1026.83 1026.42 1026.07 1025.77 1025.49 1025.22
1028.00 1029.08 1030.29 1031.58 1032.89 1034.18 1035.41 1036.55 1037.57 1038.45 1039.19 1039.78 1040.20 1040.48 1040.61 1040.60 1040.47 1040.23 1039.89 1039.47 1038.98 1038.44 1037.85 1037.22 1036.57 1035.89 1035.19 1034.47 1033.73 1032.99 1032.24 1031.51 1030.78 1030.09 1029.43 1028.82 1028.26 1027.75 1027.29 1026.88 1026.51 1026.16 1025.83 1025.51
1027.98 1029.18 1030.47 1031.81 1033.13 1034.41 1035.59 1036.67 1037.62 1038.43 1039.11 1039.64 1040.04 1040.30 1040.44 1040.46 1040.36 1040.16 1039.86 1039.46 1038.99 1038.45 1037.86 1037.22 1036.54 1035.84 1035.13 1034.41 1033.69 1032.98 1032.28 1031.61 1030.95 1030.33 1029.74 1029.19 1028.67 1028.19 1027.74 1027.31 1026.90 1026.51 1026.13 1025.76
1028.05 1029.34 1030.69 1032.05 1033.37 1034.61 1035.74 1036.74 1037.61 1038.35 1038.97 1039.45 1039.82 1040.07 1040.22 1040.25 1040.19 1040.01 1039.75 1039.38 1038.93 1038.40 1037.81 1037.16 1036.49 1035.79 1035.08 1034.37 1033.68 1033.01 1032.36 1031.73 1031.14 1030.57 1030.03 1029.52 1029.03 1028.55 1028.09 1027.63 1027.19 1026.75 1026.33 1025.91
1028.25 1029.61 1030.99 1032.34 1033.63 1034.81 1035.86 1036.79 1037.58 1038.24 1038.79 1039.23 1039.56 1039.80 1039.95 1039.99 1039.95 1039.80 1039.55 1039.21 1038.78 1038.27 1037.70 1037.07 1036.41 1035.73 1035.05 1034.37 1033.71 1033.08 1032.47 1031.89 1031.34 1030.80 1030.28 1029.78 1029.28 1028.79 1028.29 1027.80 1027.31 1026.83 1026.36 1025.91
1028.60 1029.98 1031.35 1032.67 1033.89 1034.99 1035.97 1036.81 1037.52 1038.11 1038.60 1038.99 1039.29 1039.51 1039.64 1039.69 1039.65 1039.52 1039.29 1038.98 1038.58 1038.10 1037.55 1036.96 1036.34 1035.70 1035.06 1034.42 1033.81 1033.21 1032.64 1032.08 1031.54 1031.01 1030.48 1029.95 1029.41 1028.87 1028.33 1027.79 1027.25 1026.72 1026.21 1025.73
1029.05 1030.42 1031.74 1032.99 1034.13 1035.14 1036.02 1036.78 1037.42 1037.94 1038.38 1038.73 1039.00 1039.19 1039.31 1039.35 1039.31 1039.19 1038.98 1038.69 1038.32 1037.88 1037.38 1036.85 1036.28 1035.70 1035.11 1034.54 1033.97 1033.41 1032.85 1032.30 1031.75 1031.19 1030.62 1030.03 1029.44 1028.83 1028.21 1027.60 1027.00 1026.42 1025.87 1025.36
1029.52 1030.83 1032.08 1033.23 1034.27 1035.19 1035.99 1036.67 1037.24 1037.72 1038.12 1038.44 1038.68 1038.86 1038.97 1039.00 1038.96 1038.84 1038.65 1038.38 1038.04 1037.65 1037.21 1036.74 1036.25 1035.74 1035.23 1034.71 1034.19 1033.66 1033.12 1032.57 1031.99 1031.38 1030.75 1030.08 1029.40 1028.70 1028.00 1027.31 1026.64 1026.00 1025.40 1024.84
1029.90 1031.13 1032.27 1033.32 1034.27 1035.09 1035.82 1036.44 1036.97 1037.42 1037.80 1038.11 1038.34 1038.51 1038.61 1038.64 1038.60 1038.48 1038.30 1038.06 1037.76 1037.42 1037.05 1036.66 1036.25 1035.82 1035.39 1034.94 1034.47 1033.98 1033.45 1032.88 1032.27 1031.60 1030.89 1030.14 1029.37 1028.58 1027.78 1027.01 1026.26 1025.55 1024.88 1024.27
1030.08 1031.20 1032.24 1033.18 1034.03 1034.79 1035.46 1036.05 1036.57 1037.02 1037.40 1037.71 1037.96 1038.14 1038.24 1038.27 1038.23 1038.13 1037.96 1037.75 1037.50 1037.21 1036.91 1036.60 1036.27 1035.94 1035.59 1035.21 1034.80 1034.34 1033.83 1033.25 1032.60 1031.88 1031.10 1030.27 1029.41 1028.53 1027.65 1026.79 1025.96 1025.18 1024.45 1023.77
1029.97 1030.98 1031.91 1032.76 1033.53 1034.24 1034.89 1035.48 1036.01 1036.49 1036.90 1037.25 1037.53 1037.73 1037.85 1037.89 1037.87 1037.77 1037.63 1037.45 1037.24 1037.02 1036.79 1036.55 1036.32 1036.07 1035.80 1035.50 1035.15 1034.73 1034.24 1033.66 1032.99 1032.23 1031.41 1030.52 1029.59 1028.64 1027.69 1026.76 1025.86 1025.00 1024.20 1023.45
1029.52 1030.43 1031.26 1032.04 1032.77 1033.46 1034.11 1034.73 1035.30 1035.83 1036.30 1036.70 1037.02 1037.26 1037.41 1037.48 1037.47 1037.41 1037.29 1037.15 1036.98 1036.82 1036.66 1036.50 1036.35 1036.19 1036.00 1035.77 1035.48 1035.11 1034.64 1034.08 1033.41 1032.65 1031.80 1030.88 1029.91 1028.92 1027.93 1026.95 1026.00 1025.08 1024.22 1023.39
Thickness
5589 5573 5567 5566 5562 5550 5539 5536 5526 5519 5491 5475 5449 5430 5413 5392 5368 5350 5334 5318 5302 5288 5276 5265 5256 5247 5238 5230 5221 5212 5204 5196 5189 5183 5177 5172 5168 5166 5164 5164 5166 5169 5175 5183
5588 5567 5560 5559 5557 5544 5532 5521 5509 5495 5482 5460 5440 5424 5408 5383 5357 5340 5325 5309 5294 5280 5269 5259 5250 5242 5233 5224 5215 5206 5197 5190 5183 5177 5172 5167 5163 5159 5156 5155 5155 5158 5162 5170
5592 5573 5567 5576 5562 5542 5529 5515 5502 5490 5476 5449 5433 5416 5395 5368 5346 5330 5314 5299 5285 5273 5262 5253 5244 5236 5227 5219 5209 5201 5192 5185 5178 5172 5166 5162 5158 5153 5148 5146 5145 5147 5151 5158
5576 5577 5573 5575 5537 5532 5521 5508 5490 5475 5458 5440 5422 5403 5376 5351 5335 5320 5304 5290 5278 5267 5257 5248 5239 5231 5223 5214 5205 5197 5189 5181 5175 5168 5161 5156 5151 5146 5141 5136 5134 5136 5140 5146
5561 5569 5582 5555 5531 5519 5511 5505 5482 5466 5450 5433 5414 5399 5375 5343 5325 5310 5295 5282 5271 5262 5253 5245 5237 5228 5220 5212 5203 5194 5186 5179 5172 5165 5158 5151 5144 5139 5132 5126 5124 5125 5129 5134
5547 5560 5574 5566 5529 5514 5504 5499 5476 5458 5443 5425 5405 5400 5376 5334 5318 5302 5288 5277 5267 5259 5251 5243 5235 5226 5218 5210 5201 5193 5184 5175 5168 5161 5153 5145 5136 5128 5119 5113 5111 5112 5117 5123
5551 5553 5575 5541 5517 5504 5507 5506 5470 5452 5435 5414 5397 5378 5349 5328 5312 5297 5284 5273 5264 5257 5249 5241 5232 5224 5216 5208 5200 5190 5181 5173 5166 5157 5148 5138 5128 5115 5104 5098 5096 5098 5104 5111
5551 5550 5559 5526 5511 5512 5510 5481 5464 5445 5424 5403 5384 5361 5341 5323 5306 5291 5280 5271 5262 5254 5248 5240 5232 5223 5215 5208 5198 5188 5180 5173 5164 5154 5144 5134 5122 5108 5095 5086 5084 5086 5092 5100
5569 5571 5545 5530 5521 5506 5491 5475 5456 5434 5410 5390 5371 5353 5334 5317 5302 5288 5278 5269 5261 5252 5246 5240 5232 5223 5215 5207 5197 5188 5181 5172 5163 5153 5143 5132 5119 5104 5089 5080 5077 5079 5083 5090
5557 5556 5537 5522 5509 5494 5481 5465 5443 5421 5398 5379 5361 5342 5325 5311 5298 5286 5276 5268 5260 5253 5247 5240 5232 5223 5214 5205 5196 5188 5181 5174 5165 5156 5145 5133 5119 5103 5087 5078 5075 5076 5079 5083
5556 5545 5526 5515 5505 5488 5466 5448 5427 5407 5388 5371 5353 5335 5318 5304 5293 5282 5274 5267 5260 5252 5246 5239 5231 5223 5215 5206 5198 5191 5184 5177 5169 5160 5149 5136 5122 5105 5090 5078 5073 5072 5074 5076
5573 5556 5538 5523 5503 5480 5459 5440 5418 5398 5379 5363 5347 5330 5314 5302 5290 5280 5273 5266 5259 5252 5245 5238 5231 5223 5215 5208 5200 5194 5189 5181 5173 5164 5152 5140 5128 5113 5097 5084 5076 5072 5071 5073
5553 5537 5526 5510 5491 5472 5454 5432 5410 5393 5375 5357 5339 5324 5311 5300 5289 5279 5272 5265 5258 5251 5244 5238 5231 5224 5217 5209 5202 5197 5189 5182 5175 5166 5155 5144 5133 5121 5109 5096 5084 5076 5072 5072
5533 5523 5507 5496 5479 5461 5443 5421 5401 5383 5367 5352 5337 5321 5307 5296 5286 5278 5270 5261 5256 5251 5244 5238 5231 5226 5219 5211 5206 5200 5192 5184 5176 5168 5157 5148 5138 5128 5118 5107 5096 5086 5078 5073
5527 5522 5509 5488 5467 5447 5429 5411 5393 5376 5361 5347 5332 5317 5304 5294 5285 5276 5268 5262 5257 5252 5245 5238 5233 5228 5221 5215 5209 5204 5196 5187 5180 5171 5162 5153 5143 5134 5126 5117 5107 5097 5088 5081
5516 5504 5491 5475 5458 5440 5424 5408 5393 5375 5358 5343 5328 5315 5302 5291 5283 5277 5271 5264 5257 5252 5245 5239 5234 5229 5224 5218 5213 5208 5199 5190 5184 5177 5169 5160 5151 5141 5134 5126 5118 5109 5099 5091
5509 5495 5483 5469 5453 5437 5423 5408 5394 5375 5356 5340 5326 5312 5301 5293 5287 5280 5272 5264 5258 5253 5247 5242 5235 5232 5228 5221 5216 5211 5203 5196 5190 5185 5177 5167 5157 5148 5141 5133 5126 5118 5109 5101
5524 5509 5493 5477 5457 5438 5420 5404 5389 5370 5354 5339 5324 5312 5303 5296 5287 5276 5269 5263 5260 5257 5251 5243 5238 5236 5230 5225 5220 5213 5207 5201 5196 5191 5183 5175 5165 5156 5148 5141 5133 5126 5119 5111
5512 5498 5484 5469 5454 5437 5419 5400 5383 5366 5350 5336 5324 5315 5303 5292 5283 5275 5268 5264 5262 5258 5252 5245 5243 5238 5233 5229 5224 5217 5211 5206 5202 5197 5190 5183 5175 5166 5158 5150 5143 5136 5129 5122
5500 5488 5474 5458 5443 5428 5411 5393 5377 5361 5347 5334 5322 5312 5303 5294 5284 5276 5270 5267 5263 5256 5251 5249 5246 5241 5237 5233 5227 5221 5216 5212 5208 5204 5198 5192 5184 5177 5169 5161 5154 5147 5140 5134
5490 5476 5462 5447 5433 5419 5404 5388 5373 5359 5344 5332 5322 5312 5303 5293 5285 5277 5272 5274 5266 5258 5256 5252 5247 5244 5241 5235 5229 5224 5220 5217 5214 5210 5206 5200 5194 5187 5180 5173 5166 5159 5153 5146
5481 5468 5454 5441 5426 5411 5396 5382 5369 5356 5342 5330 5319 5309 5301 5294 5287 5280 5273 5268 5265 5261 5259 5253 5249 5247 5243 5237 5231 5227 5223 5220 5218 5215 5212 5207 5203 5198 5192 5185 5178 5172 5166 5160
5476 5463 5449 5435 5422 5406 5389 5376 5364 5352 5341 5330 5320 5311 5304 5297 5289 5283 5278 5270 5265 5263 5260 5254 5252 5249 5244 5238 5233 5229 5226 5223 5221 5219 5216 5213 5210 5206 5202 5197 5191 5186 5180 5174
5468 5455 5441 5426 5412 5397 5384 5371 5358 5348 5337 5328 5318 5310 5302 5296 5290 5282 5275 5269 5266 5264 5260 5256 5253 5250 5245 5240 5235 5231 5228 5225 5223 5222 5219 5217 5215 5214 5211 5208 5204 5199 5194 5189
5460 5445 5431 5417 5406 5398 5384 5367 5354 5342 5333 5325 5317 5308 5301 5295 5289 5282 5275 5270 5266 5264 5260 5257 5253 5250 5245 5241 5237 5233 5229 5226 5224 5223 5221 5220 5219 5218 5217 5216 5214 5211 5208 5204
5451 5440 5429 5419 5410 5397 5381 5367 5356 5345 5335 5326 5318 5310 5302 5295 5288 5282 5276 5270 5265 5262 5259 5256 5253 5250 5246 5242 5238 5235 5231 5228 5225 5224 5223 5222 5221 5221 5221 5220 5220 5218 5216 5214
5445 5434 5421 5411 5400 5390 5378 5367 5358 5347 5337 5329 5321 5312 5303 5296 5289 5283 5276 5271 5266 5261 5258 5255 5252 5249 5246 5243 5239 5236 5233 5230 5227 5225 5224 5223 5223 5222 5223 5223 5222 5221 5220 5219